Regional Weather Roundup
Issued by NWS

Home | Current Version | Previous Version | Graphics & Text | Print | Product List | Glossary On
Versions: 1 2 3 4 5 6 7 8 9 10 11 12 13 14 15 16 17 18 19 20 21 22 23 24 25 26 27 28 29 30 31 32 33 34 35 36 37 38 39 40 41 42 43 44 45 46 47 48 49 50
000
ASUS43 KIND 280700
RWRIN

WEATHER ROUNDUP FOR INDIANA
NATIONAL WEATHER SERVICE INDIANAPOLIS IN
300 AM EDT MON MAY 28 2018

NOTE: "FAIR" INDICATES FEW OR NO CLOUDS BELOW 12,000 FEET WITH NO
SIGNIFICANT WEATHER AND/OR OBSTRUCTIONS TO VISIBILITY.

* - STATION DOES NOT REPORT WEATHER SUCH AS PRECIPITATION OR FOG.

+ - STATION NOT QUALITY CONTROLLED BY THE NATIONAL WEATHER SERVICE.
    USE DATA WITH CAUTION...ESPECIALLY DEWPOINT AND RELATIVE
    HUMIDITY OBSERVATIONS.

INZ001>003-010>013-019-020-280800-
NORTHWEST INDIANA

CITY           SKY/WX    TMP DP  RH WIND       PRES   REMARKS
KNOX *+        FAIR      68  63  83 CALM      29.92S
MICHIGAN CITY+ FAIR      63  61  94 CALM      29.91F
MONTICELLO +   FAIR      70  66  87 CALM      29.93S
RENSSELAER +   FAIR      72  59  64 CALM      29.93S

$$

LMZ046-743>745-280800-
SOUTHERN LAKE MICHIGAN

STATION/POSITION TIME  TEMP    WIND        PRES    WAVE
                       AIR SEA DIR/SP/G            HT
                 (UTC) (F)     (DEG/KT/KT) (MB)    (FT)
BURNS HARBOR     0640   75     190/  8/  9 1012.9F
MICHIGAN CITY    0630   78     130/ 10/ 11   N/A
5NW MICH CITY    0650   69 66  230/  4/  6   N/A     0

$$

INZ004-005-014>016-021>024-280800-
NORTH CENTRAL INDIANA

CITY           SKY/WX    TMP DP  RH WIND       PRES   REMARKS
GOSHEN         FAIR      70  65  84 E3        29.92F
SOUTH BEND     FAIR      69  61  75 CALM      29.92F
WARSAW +       FAIR      68  64  88 CALM      29.93F

$$

INZ006>009-017-018-025>027-280800-
NORTHEAST INDIANA

CITY           SKY/WX    TMP DP  RH WIND       PRES   REMARKS
ANGOLA *+      FAIR      66  64  94 CALM      29.94S
AUBURN +       FAIR      66  63  88 CALM      29.95S
FORT WAYNE     FAIR      72  63  73 S6        29.94S
KENDALLVILLE + FAIR      67  61  80 CALM      29.95S

$$

INZ028-029-035-036-043>045-051>053-280800-
WEST CENTRAL INDIANA

CITY           SKY/WX    TMP DP  RH WIND       PRES   REMARKS
CRAWFORDSVL +  FAIR      68  68 100 SE3       29.95R
GREENCASTLE +  FAIR      68  66  94 CALM      29.95F
LAFAYETTE      FAIR      68  66  93 CALM      29.92R
TERRE HAUTE    FAIR      70  67  90 SE5       29.93S

$$

INZ030>032-037>040-046>048-054>057-064-065-280800-
CENTRAL INDIANA

CITY           SKY/WX    TMP DP  RH WIND       PRES   REMARKS
ANDERSON       FAIR      71  66  83 S3        29.97S
FRANKFORT +    FAIR      73  68  82 CALM      29.96S
GREENWOOD *+   FAIR      70  68  93 CALM      29.96S
INDIANAPOLIS   FAIR      73  69  87 CALM      29.95R
-EAGLE CREEK   FAIR      72  67  84 CALM      29.94S
KOKOMO +       FAIR      72  63  73 S5        29.95F
MT COMFORT *+  FAIR      68  68 100 CALM      29.97S
SHELBYVILLE    FAIR      71  67  87 E3        29.94F

$$

INZ033-034-041-042-049-050-058-059-280800-
EAST CENTRAL INDIANA

CITY           SKY/WX    TMP DP  RH WIND       PRES   REMARKS
MUNCIE         FAIR      77  67  71 SW6       29.96S
RICHMOND +     FAIR      66  66 100 CALM      29.99R FOG

$$

INZ060-061-067>069-081>083-085>088-280800-
SOUTHWEST INDIANA

CITY           SKY/WX    TMP DP  RH WIND       PRES   REMARKS
EVANSVILLE     FAIR      72  69  90 N5        29.92S
HUNTINGBURG +  FAIR      68  67  96 SE5       29.93S

$$

INZ062-063-066-070>080-084-089>092-280800-
SOUTH CENTRAL AND SOUTHEAST INDIANA

CITY           SKY/WX    TMP DP  RH WIND       PRES   REMARKS
BLOOMINGTON    FAIR      69  67  93 CALM      29.95S
FRENCH LICK *+ FAIR      68 N/A N/A NE3       29.95S
SEYMOUR +      FAIR      70  68  94 CALM      29.94F

$$





USA.gov is the U.S. government's official web portal to all federal, state and local government web resources and services.